Theta_e
351 350 351 348 347 347 343 343 337 343 339 344 346 349 351 350 347 347 346 345 344 344 344 346 344 340 340 345 346 344 345 345 346 345 344 346 345 345 349 349 346 348 348
352 348 349 349 345 341 341 336 337 339 338 340 341 346 348 347 346 345 344 343 342 342 342 342 345 341 342 341 342 344 344 344 345 343 345 347 347 347 348 349 349 349 349
350 349 346 346 347 343 343 342 341 336 337 338 339 344 348 346 346 344 342 341 338 339 339 340 341 344 341 339 338 340 342 343 344 345 344 348 345 347 348 349 349 349 350
347 349 345 342 342 341 340 336 337 337 338 336 339 346 348 346 343 340 340 340 337 338 340 340 339 341 341 340 338 339 339 344 344 344 343 343 342 350 350 347 348 349 350
346 348 346 344 343 343 343 340 338 338 340 337 344 347 345 341 339 341 341 341 340 339 340 340 342 341 341 340 338 338 340 341 343 343 344 344 344 342 342 346 346 346 347
345 346 343 343 344 341 342 335 334 336 343 347 346 340 339 339 340 341 340 341 340 341 340 339 341 342 342 340 339 339 340 340 343 344 343 342 343 344 344 346 343 343 343
344 346 345 341 341 342 341 340 340 342 346 346 341 338 337 335 340 341 340 341 340 340 341 339 340 341 340 338 337 340 339 341 343 344 343 343 341 342 342 341 341 342 342
344 345 344 342 341 340 340 340 343 344 348 344 340 337 336 339 340 340 340 340 341 341 341 341 341 340 338 337 337 342 342 342 343 344 344 343 343 340 339 340 340 348 343
349 347 343 342 341 341 344 346 346 348 347 343 341 337 336 339 339 339 339 339 339 340 341 341 342 342 342 341 341 342 342 341 342 343 343 342 340 339 339 341 341 340 343
353 349 346 344 342 343 345 348 349 349 345 343 342 338 338 339 339 340 340 340 338 339 339 339 341 341 342 342 341 341 342 341 342 344 342 342 343 341 340 340 342 342 341
353 351 349 348 345 346 346 348 348 346 345 344 342 338 339 339 339 339 339 339 338 337 338 338 339 339 340 341 340 341 341 339 338 339 340 342 343 343 342 343 342 342 341
351 350 351 349 346 347 348 348 346 345 345 344 343 340 341 340 339 339 339 338 337 336 337 337 337 340 338 339 339 340 339 338 338 338 337 338 340 339 340 340 339 338 337
350 350 349 347 348 351 349 347 345 344 344 344 344 340 341 342 340 339 338 337 336 336 335 335 335 335 335 336 337 337 337 337 337 337 337 337 338 338 339 338 337 337 336
351 351 348 345 348 349 348 346 346 345 344 344 344 342 341 342 341 338 336 335 335 335 334 334 334 334 334 334 333 334 334 334 334 334 334 334 334 334 334 334 333 334 335
352 346 343 344 347 347 346 344 346 345 344 344 343 344 341 341 340 336 334 333 333 332 333 333 333 332 331 330 330 329 329 330 329 329 329 329 330 331 331 330 330 332 332
351 349 346 345 346 345 344 342 342 343 343 343 344 345 343 341 339 335 333 332 331 330 331 331 330 329 327 331 331 329 327 327 326 326 326 327 328 328 328 328 329 329 329
349 347 344 341 339 340 338 338 337 338 341 342 343 344 343 342 337 334 333 331 329 328 328 327 327 325 325 327 328 327 325 323 322 322 321 321 321 322 321 321 323 323 325
344 339 334 332 331 330 332 332 333 335 335 338 340 345 342 341 335 333 331 328 328 327 327 326 326 325 324 324 323 324 322 317 315 315 316 316 315 313 314 313 312 311 311
337 332 330 328 325 326 325 328 330 330 330 330 332 339 339 337 333 331 327 325 325 325 323 325 325 324 323 321 320 319 318 314 314 314 314 314 312 310 312 313 312 311 308
327 327 325 324 322 321 322 324 324 325 324 323 328 334 337 337 332 327 323 322 323 323 322 322 319 320 319 317 318 317 316 314 314 313 311 311 311 311 313 315 314 312 310
324 323 323 322 320 318 320 320 318 318 319 322 326 331 333 331 329 325 320 319 319 318 318 316 313 314 315 315 315 316 313 312 312 311 309 308 310 310 311 312 311 309 305
322 322 320 319 317 317 318 316 316 316 319 320 321 322 323 324 323 321 318 317 316 316 313 312 311 311 312 313 314 314 313 311 309 307 306 305 306 306 307 308 307 304 306
321 320 318 318 316 315 317 316 314 315 317 317 316 315 316 317 317 316 314 312 312 311 309 310 308 308 309 310 312 312 311 311 308 304 303 302 302 302 302 302 302 303 304
320 320 320 319 316 315 314 313 314 315 315 314 312 312 312 312 313 313 313 314 314 313 311 309 308 308 308 309 309 309 307 305 304 303 302 301 301 301 301 302 302 301 301
321 320 319 317 315 313 313 312 313 313 311 310 310 310 310 311 311 310 311 311 311 312 311 310 309 308 308 308 307 306 304 304 303 303 303 303 302 302 302 301 301 301 301
320 318 317 316 313 312 312 312 313 312 312 312 310 309 307 309 308 308 308 309 310 311 310 310 310 308 306 305 304 304 303 303 303 304 304 303 302 301 301 301 300 300 300
Wind_Speed
8 9 14 20 22 24 24 19 14 7 4 4 1 2 6 8 12 14 15 16 17 19 19 18 23 23 22 19 18 18 17 16 12 9 11 14 15 14 13 12 15 16 17
7 8 12 20 26 24 22 20 20 10 3 5 6 4 5 8 9 9 13 15 18 20 21 23 20 22 24 21 20 18 17 16 13 9 6 4 7 10 12 12 12 14 15
9 10 14 16 9 6 6 8 12 16 3 7 6 8 6 6 6 7 8 8 11 12 14 21 27 19 24 24 23 21 19 17 14 14 7 3 5 4 7 13 13 14 15
11 10 14 13 10 6 3 8 10 11 6 2 4 2 1 5 5 9 10 10 10 12 14 15 16 22 23 24 23 24 23 19 16 11 14 8 2 2 2 6 10 12 12
12 15 15 12 9 3 4 9 5 4 2 2 2 1 1 3 7 9 10 8 7 9 11 14 14 15 16 18 25 24 22 20 17 15 10 12 10 5 2 1 4 8 12
12 11 10 7 6 6 7 11 11 11 5 2 4 2 2 5 7 9 9 9 8 7 6 10 14 14 13 16 23 24 23 21 17 15 14 11 5 9 6 4 2 3 4
11 9 8 10 6 6 6 8 6 6 3 5 4 3 4 6 6 6 8 10 9 8 8 6 8 12 14 13 15 15 18 18 17 17 16 16 16 12 12 10 11 7 6
9 11 12 11 9 5 6 4 3 6 6 5 3 3 3 4 5 7 9 10 10 8 7 4 3 4 8 11 13 12 14 14 14 14 13 13 14 18 16 14 12 5 7
11 11 12 11 11 7 4 6 7 8 8 6 3 2 1 3 5 8 9 11 12 8 6 5 3 2 5 7 10 11 12 11 12 11 11 12 12 16 19 16 14 13 8
9 7 7 10 11 8 6 8 7 8 8 6 3 2 1 4 5 6 8 9 10 9 7 6 5 4 5 7 9 9 8 8 9 10 11 10 10 11 16 18 13 11 12
8 8 5 6 4 9 7 6 7 8 8 5 2 2 1 2 4 6 7 7 8 9 8 7 4 4 4 4 5 6 6 8 7 9 10 10 10 10 12 13 11 9 6
9 8 8 11 11 6 11 9 8 8 7 5 4 4 1 2 3 4 5 6 6 8 8 10 9 7 2 1 3 1 1 2 3 5 7 7 8 11 11 12 10 10 9
11 11 11 11 11 9 9 8 8 6 7 7 5 4 3 2 2 2 4 6 7 9 10 10 12 12 11 9 7 6 7 6 5 4 2 1 5 8 12 11 11 9 8
13 12 9 12 14 10 8 7 5 7 7 8 8 7 5 4 2 2 4 7 8 10 12 12 14 14 13 12 11 11 11 11 10 8 7 7 7 9 7 4 2 4 8
14 12 7 10 10 10 7 6 6 7 8 9 9 9 7 6 4 4 6 7 8 9 10 10 12 13 14 13 14 14 15 16 16 16 15 14 11 10 9 7 8 7 7
13 12 9 10 9 7 4 2 4 7 9 12 12 10 10 10 8 9 7 7 9 10 10 11 11 12 11 8 8 9 11 12 13 14 13 11 9 9 8 7 6 5 4
13 11 9 8 7 5 3 0 1 4 7 11 14 12 12 14 12 12 10 8 9 10 12 11 11 12 13 11 12 12 12 13 12 11 12 14 15 15 16 16 16 16 12
13 12 12 12 9 6 2 3 3 1 4 5 9 14 15 15 16 12 11 10 9 10 13 12 12 11 13 10 10 11 13 15 15 15 15 15 15 16 17 19 22 23 21
12 14 12 11 9 8 2 2 1 3 4 5 5 8 17 17 17 15 12 10 10 10 10 12 11 11 11 9 9 13 14 16 16 15 14 14 14 13 15 15 18 18 19
15 15 13 10 8 6 2 2 2 1 2 4 5 6 17 23 21 17 14 10 10 12 12 12 11 12 12 9 8 12 13 14 15 15 16 15 14 11 12 11 12 15 13
16 13 11 10 9 6 5 4 4 2 1 3 3 5 13 18 22 20 14 14 13 14 17 15 11 11 11 9 6 8 12 13 14 13 13 14 13 13 13 13 13 15 13
15 12 12 11 8 7 7 7 5 3 5 6 6 6 8 13 17 17 17 16 15 14 14 16 17 14 13 10 8 10 13 15 18 16 16 14 13 14 15 17 15 14 11
12 11 12 11 8 8 7 8 5 6 8 9 10 10 10 12 14 16 17 15 15 15 11 19 15 15 17 15 14 15 16 15 17 17 17 16 16 16 16 14 13 11 9
12 12 12 11 9 8 8 8 8 8 10 12 12 11 13 15 15 14 13 14 15 16 17 14 14 13 15 15 16 16 15 16 15 15 13 14 15 15 14 12 13 12 11
12 10 11 10 9 8 8 7 8 9 11 12 11 13 14 16 17 16 13 11 10 12 16 15 13 12 11 13 13 14 15 15 14 13 9 7 8 10 10 10 9 9 8
12 11 10 10 8 8 8 8 8 9 10 12 9 10 13 17 18 20 19 16 12 11 10 12 12 12 15 16 14 13 12 13 12 7 6 6 7 7 7 6 6 6 6
Wind_Direction
102 120 144 145 160 172 179 202 191 171 309 93 154 247 250 271 272 276 275 269 264 260 256 252 252 250 243 237 232 233 243 247 250 257 263 259 254 249 237 237 239 231 234
139 143 173 187 189 181 194 211 204 146 276 327 339 300 294 299 295 297 301 285 273 262 255 250 248 249 247 244 241 232 240 245 236 234 245 262 231 237 230 233 229 231 233
181 180 201 211 194 205 229 154 180 185 200 264 292 325 328 305 304 312 308 299 293 282 272 253 247 246 246 237 239 243 233 237 227 217 229 215 233 217 212 226 230 234 238
196 195 210 218 213 244 108 108 158 183 233 333 316 329 309 311 309 313 306 310 303 279 263 257 249 242 244 234 232 241 235 227 222 210 227 232 267 269 219 221 227 234 240
188 198 208 211 205 163 85 85 82 190 221 190 297 142 277 314 329 336 328 317 312 301 270 253 243 236 228 219 217 230 234 227 227 218 216 226 232 237 248 271 207 231 241
187 194 211 203 195 158 125 100 93 100 62 122 134 119 23 11 358 354 341 332 341 344 305 265 233 228 225 219 226 229 232 228 225 224 225 226 225 227 229 238 281 278 250
182 181 197 194 184 172 152 123 133 146 105 142 118 69 49 15 349 360 357 345 344 342 336 292 238 228 229 232 230 229 233 226 222 222 227 237 243 250 252 263 275 273 275
176 187 197 192 188 183 169 166 166 163 151 143 125 73 60 5 353 359 6 352 341 329 334 322 278 260 239 224 230 230 232 224 223 224 225 236 238 244 251 254 254 260 254
178 187 187 202 180 175 178 159 157 151 152 161 125 94 52 356 11 6 11 4 352 343 346 342 330 276 242 236 229 225 223 224 224 226 228 235 248 242 249 250 246 234 265
144 138 166 187 182 170 170 150 149 159 160 161 141 132 64 10 8 9 12 16 10 17 16 2 336 278 247 233 221 225 220 215 226 230 234 238 238 234 230 240 241 239 235
117 126 148 138 163 155 149 145 152 173 164 163 160 157 13 6 28 23 16 24 18 18 31 22 349 308 308 254 216 227 210 222 229 242 246 244 235 227 223 226 229 225 221
113 120 134 119 124 167 152 153 186 173 168 173 184 177 175 348 37 31 28 34 32 38 41 48 54 58 69 58 27 81 104 197 235 244 246 247 234 232 225 222 220 224 224
147 142 138 134 157 177 165 160 185 170 178 182 201 200 203 265 61 42 60 60 58 62 58 57 57 61 64 72 80 90 92 93 93 87 104 262 246 220 211 203 201 221 235
160 160 155 162 160 171 176 186 175 200 190 199 209 221 218 243 201 127 103 89 83 81 75 68 68 62 63 66 73 84 88 89 86 87 83 82 87 85 95 86 89 195 171
164 169 172 169 157 168 166 201 210 218 217 220 221 225 215 211 189 172 135 115 104 87 82 77 73 72 71 72 79 82 83 87 89 89 88 84 87 90 94 92 73 82 94
167 175 161 152 149 151 176 221 232 238 230 232 230 219 209 196 186 187 152 137 118 103 91 81 80 78 72 79 87 92 90 88 85 83 82 83 81 77 75 78 76 70 76
156 156 142 137 124 114 109 103 278 256 255 240 234 222 206 195 185 184 165 152 133 119 107 94 85 81 79 77 81 89 89 83 79 80 84 84 81 83 83 83 84 81 82
151 139 128 123 115 101 88 214 210 273 263 255 240 220 206 192 184 172 176 157 142 133 127 114 104 98 87 82 84 96 93 88 83 81 81 82 80 87 88 84 77 72 70
126 115 120 121 118 118 151 239 50 281 284 292 273 226 201 183 178 173 173 159 141 126 125 122 118 112 103 95 94 100 100 96 88 85 85 86 87 87 92 90 90 86 79
121 122 122 121 106 93 103 89 88 317 311 298 295 234 205 201 182 173 165 149 137 130 129 126 120 120 115 107 113 112 112 107 101 92 84 88 91 92 96 93 98 95 90
121 122 125 119 119 136 137 131 125 124 355 31 61 165 192 190 184 170 159 152 144 139 141 129 120 119 117 112 120 125 119 120 115 106 96 90 89 90 94 99 104 107 106
131 136 131 124 119 125 137 132 111 98 81 73 80 106 148 165 166 161 153 153 141 138 136 131 127 119 114 113 121 130 127 125 120 108 103 97 92 90 90 92 101 101 95
137 141 135 124 120 127 130 122 107 95 90 91 88 96 117 136 147 150 146 139 137 131 129 133 124 122 120 122 123 126 125 124 115 110 105 105 98 92 86 92 95 86 85
142 140 133 124 116 110 105 102 101 99 98 97 96 102 111 116 121 129 137 137 142 146 143 131 125 123 122 125 127 125 119 116 109 109 112 105 96 93 89 82 78 80 85
134 131 122 119 113 107 96 96 97 100 100 101 104 109 116 115 116 113 112 119 127 146 148 148 137 130 129 137 139 130 129 130 130 126 124 108 102 90 82 77 81 86 85
132 121 117 117 111 106 101 98 107 115 117 111 109 116 114 116 117 113 103 98 108 122 135 141 143 139 138 132 132 132 133 134 140 132 130 122 106 93 82 80 85 87 91